Regional Weather Roundup
Issued by NWS Cleveland, OH

Home | Current Version | Previous Version | Graphics & Text | Print | Product List | Glossary On
Versions: 1 2 3 4 5 6 7 8 9 10 11 12 13 14 15 16 17 18 19 20 21 22 23 24 25 26 27 28 29 30 31 32 33 34 35 36 37 38 39 40 41 42 43 44 45 46 47 48 49 50
000
ASUS41 KCLE 180300
RWRCLE
OHIO REGIONAL WEATHER ROUNDUP
NATIONAL WEATHER SERVICE WILMINGTON, OH
1100 PM EDT THU AUG 17 2017

NOTE: "FAIR" INDICATES FEW OR NO CLOUDS BELOW 12,000 FEET WITH NO
SIGNIFICANT WEATHER AND/OR OBSTRUCTIONS TO VISIBILITY.

OHZ001>008-015>018-024>027-034-035-043-044-180400-
   NORTHWEST OHIO

CITY           SKY/WX    TMP DP  RH WIND       PRES   REMARKS
DEFIANCE       FAIR      74  66  76 VRB3      29.81R
FINDLAY        FAIR      76  67  73 SW10      29.81S
TOLEDO EXPRESS FAIR      76  69  79 SW10      29.78S
TOLEDO EXEC    FAIR      76  70  82 SW10      29.79R
LIMA           FAIR      74  70  87 SW7       29.84R
$$

OHZ009>014-019>023-028>033-038-089-180400-
   NORTHEAST OHIO

CITY           SKY/WX    TMP DP  RH WIND       PRES   REMARKS
CLE-HOPKINS    FAIR      78  72  81 S10       29.82R
CLE-LAKEFRONT  FAIR      78  71  79 S14       29.78S
CUY CO. ARPT   NOT AVBL
LORAIN-ELYRIA  FAIR      74  68  81 SW9       29.81S
ASHTABULA      FAIR      72  72 100 S6        29.81F
AKRON-CANTON   FAIR      75  70  84 SW10      29.85F
WOOSTER        NOT AVBL
MANSFIELD      FAIR      75  72  90 SW10      29.85S
YOUNGSTOWN     CLOUDY    75  72  90 S9        29.84S
$$

OHZ042-051>053-060>062-070>072-077>081-180400-
  SOUTHWEST OHIO

CITY           SKY/WX    TMP DP  RH WIND       PRES   REMARKS
CINC-COVINGTON FAIR      73  73 100 SW5       29.89S
CINC-LUNKEN    MOCLDY    75  74  96 CALM      29.88S
HAMILTON       FAIR      75  74  96 SW3       29.88S
DAYTON         NOT AVBL
WRIGHT-PAT AFB CLOUDY    77  75  93 S12       29.87R
DAYTON GENERAL MOCLDY    75  73  93 S9        29.87S
WILMINGTON     LGT RAIN  73  73 100 SW10      29.90R
$$

OHZ036-037-039>041-045>050-054>059-063>069-073>076-082>088-180400-
  CENTRAL AND SOUTHEAST OHIO

CITY           SKY/WX    TMP DP  RH WIND       PRES   REMARKS
COLUMBUS       MOCLDY    75  74  96 S7        29.86S
OSU AIRPORT    FAIR      75  74  96 SW8       29.86S
BOLTON FIELD   NOT AVBL
RICKENBACK AFB NOT AVBL
NEWARK         FAIR      73  71  93 SW5       29.86F
MARION         FAIR      75  71  87 SW9       29.85S
LANCASTER      FAIR      74 N/A N/A SW8       29.88S
ZANESVILLE     FAIR      73  70  90 S8        29.88S
NEW PHILLY     FAIR      73  72  96 S5        29.87S
$$




USA.gov is the U.S. government's official web portal to all federal, state and local government web resources and services.